Location: Aufkirchen
(47.9603°N, 11.3653°E)
Time: 05:48:57
(UTC+01:00)

Transit 2A - Pass Details

Date: 05 December 2020
Orbit: 599 x 960 km, 66.7° (Epoch: 25 January)

Event Time Altitude Azimuth Distance (km) Brightness Sun altitude
Rises 01:43:35 0° 318° (NW) 3,247 - -57.8°
Reaches altitude 10° 01:46:20 10° 308° (NW) 2,251 - -57.4°
Maximum altitude 01:50:41 29° 249° (WSW) 1,256 - -56.9°
Drops below altitude 10° 01:54:41 10° 190° (S) 2,057 - -56.4°
Sets 01:57:06 0° 178° (S) 2,919 - -56.1°
